Stations météo

réclame
Mon MeteoGroup
Cap-de-la Heve, France (7028): Température de l'air & dewpoint: 20.08.2019 02:00:00 - 26.08.2019 02:00:00 (CEST)Cap-de-la Heve, France (7028): Température de l'air 5cm: 20.08.2019 02:00:00 - 26.08.2019 02:00:00 (CEST)Cap-de-la Heve, France (7028): Vitesse du vent & gusts: 20.08.2019 02:00:00 - 26.08.2019 02:00:00 (CEST)Cap-de-la Heve, France (7028): Direction du vent: 20.08.2019 02:00:00 - 26.08.2019 02:00:00 (CEST)Cap-de-la Heve, France (7028): reduced air pressure: 20.08.2019 02:00:00 - 26.08.2019 02:00:00 (CEST)Cap-de-la Heve, France (7028): visibility: 20.08.2019 02:00:00 - 26.08.2019 02:00:00 (CEST)Cap-de-la Heve, France (7028): Quantités de précipitations: 20.08.2019 02:00:00 - 26.08.2019 02:00:00 (CEST)
Date & Time tt [°C] td [°C] tt 5cm [°C] ff [km/h] ff [knt] fx [km/h] fx [knt] dd ppp [hPa] vv [km] rr [mm]
26.08.2019 02:00:00 17,9 16,8 17,4 10 6 19 10 N 1019,3 - 0,0
26.08.2019 01:00:00 17,9 16,6 17,5 8 4 17 9 N 1019,5 - 0,0
26.08.2019 00:00:00 18,0 16,7 17,6 8 5 24 13 N 1019,4 - 0,0
25.08.2019 23:00:00 17,9 16,6 17,7 15 8 27 14 N 1019,6 - 0,0
25.08.2019 22:00:00 17,8 17,0 17,4 18 10 30 16 N 1019,5 - 0,0
25.08.2019 21:00:00 17,4 17,2 17,4 19 11 32 17 N 1018,7 - 0,0
25.08.2019 20:00:00 18,1 17,5 18,9 18 10 29 15 N 1018,3 - 0,0
25.08.2019 19:00:00 19,6 17,7 21,6 19 10 28 15 N 1018,1 - 0,0
25.08.2019 18:00:00 20,7 17,9 25,7 17 9 29 15 NNW 1018,3 - 0,0
25.08.2019 17:00:00 21,2 17,8 24,3 15 8 30 16 NNW 1018,2 10 0,0
25.08.2019 16:00:00 21,0 17,6 25,0 18 10 32 17 N 1018,2 - 0,0
25.08.2019 15:00:00 21,2 18,0 27,5 14 8 29 15 N 1018,4 - 0,0
25.08.2019 14:00:00 21,4 18,2 29,6 17 9 27 14 NNW 1018,4 - 0,0
25.08.2019 13:00:00 23,1 17,1 32,3 15 8 26 14 NW 1017,9 - 0,0
25.08.2019 12:00:00 28,5 14,7 31,2 6 3 10 5 S 1017,5 - 0,0
25.08.2019 11:00:00 28,5 11,5 28,2 4 2 13 7 SE 1017,5 - 0,0
25.08.2019 10:00:00 24,7 12,9 24,8 6 4 13 7 ENE 1017,5 - 0,0
25.08.2019 09:00:00 22,5 11,9 21,3 9 5 13 7 ENE 1017,2 - 0,0
25.08.2019 08:00:00 20,9 11,8 19,4 6 4 17 9 ENE 1016,9 - 0,0
25.08.2019 07:00:00 20,8 10,9 19,0 7 4 17 9 ESE 1016,7 - 0,0
25.08.2019 06:00:00 20,7 11,1 19,5 10 5 23 12 E 1016,5 - 0,0
25.08.2019 05:00:00 21,7 12,5 20,8 13 7 24 13 ENE 1016,4 20 0,0
25.08.2019 04:00:00 22,0 12,5 21,3 15 8 29 16 E 1016,5 - 0,0
25.08.2019 03:00:00 23,2 12,5 22,3 18 10 28 15 E 1016,4 - 0,0
25.08.2019 02:00:00 24,3 11,6 23,1 16 9 24 13 E 1016,5 20 0,0
25.08.2019 01:00:00 24,2 13,1 23,2 15 8 24 13 ENE 1016,4 - 0,0
25.08.2019 00:00:00 25,2 11,7 23,9 14 8 23 12 E 1016,4 - 0,0
24.08.2019 23:00:00 25,2 12,1 24,3 15 8 21 11 ENE 1016,4 25 0,0
24.08.2019 22:00:00 25,2 12,4 24,5 14 8 21 12 ENE 1016,5 - 0,0
24.08.2019 21:00:00 26,0 12,4 24,9 12 6 15 8 NE 1016,4 - 0,0
24.08.2019 20:00:00 28,3 11,4 28,6 7 4 10 6 NE 1016,2 - 0,0
24.08.2019 19:00:00 29,8 9,3 30,3 3 1 10 5 ESE 1016,3 - 0,0
24.08.2019 18:00:00 29,8 12,7 32,8 2 1 16 9 NE 1016,8 - 0,0
24.08.2019 17:00:00 28,1 12,0 33,1 8 4 18 10 NNW 1017,1 30 0,0
24.08.2019 16:00:00 27,5 12,3 33,4 9 5 16 9 NNW 1017,5 - 0,0
24.08.2019 15:00:00 28,2 12,5 29,7 7 4 14 7 W 1017,6 - 0,0
24.08.2019 14:00:00 27,5 11,9 29,6 5 3 13 7 S 1018,0 15 0,0
24.08.2019 13:00:00 27,6 13,9 29,6 6 3 16 9 S 1018,4 - 0,0
24.08.2019 12:00:00 27,0 11,5 29,4 9 5 19 10 E 1018,7 - 0,0
24.08.2019 11:00:00 25,4 12,9 25,8 6 3 18 10 E 1018,9 25 0,0
24.08.2019 10:00:00 22,5 12,1 22,5 12 7 29 15 E 1019,0 - 0,0
24.08.2019 09:00:00 20,5 11,9 20,5 17 9 28 15 ENE 1019,1 - 0,0
24.08.2019 08:00:00 20,0 11,7 18,5 18 10 30 16 ENE 1018,9 - 0,0
24.08.2019 07:00:00 19,1 11,4 18,3 18 10 29 15 ENE 1018,9 - 0,0
24.08.2019 06:00:00 19,4 11,4 18,4 16 9 28 15 ENE 1019,0 - 0,0
24.08.2019 05:00:00 19,8 11,3 18,8 16 9 27 14 E 1019,5 - 0,0
24.08.2019 04:00:00 19,6 11,4 18,3 17 9 29 16 ENE 1019,7 - 0,0
24.08.2019 03:00:00 19,0 11,1 18,2 17 9 29 15 ENE 1020,0 - 0,0
24.08.2019 02:00:00 19,0 11,1 18,3 18 10 32 17 ENE 1020,4 - 0,0
24.08.2019 01:00:00 19,2 10,5 18,6 22 12 33 18 ENE 1020,4 - 0,0
24.08.2019 00:00:00 19,5 9,9 19,0 22 12 36 20 ENE 1020,6 - 0,0
23.08.2019 23:00:00 20,2 9,1 19,4 23 12 38 20 ENE 1021,0 20 0,0
23.08.2019 22:00:00 20,2 8,5 19,6 22 12 37 20 NE 1021,2 - 0,0
23.08.2019 21:00:00 21,0 9,6 20,6 17 9 33 18 NE 1021,2 - 0,0
23.08.2019 20:00:00 22,6 10,7 22,6 16 9 29 15 NE 1021,2 - 0,0
23.08.2019 19:00:00 24,1 11,4 25,5 14 8 27 15 NE 1021,5 - 0,0
23.08.2019 18:00:00 25,2 12,4 26,5 11 6 23 12 NE 1021,9 - 0,0
23.08.2019 17:00:00 21,7 16,0 26,6 14 8 27 14 N 1022,5 - 0,0
23.08.2019 16:00:00 23,6 15,1 30,4 13 7 23 13 N 1022,9 - 0,0
23.08.2019 15:00:00 23,3 14,0 29,5 11 6 19 11 NNW 1023,4 - 0,0
23.08.2019 14:00:00 22,6 13,9 31,3 10 6 16 8 NNW 1023,9 15 0,0
23.08.2019 13:00:00 22,3 13,9 24,9 0 0 13 7 N 1024,5 - 0,0
23.08.2019 12:00:00 21,5 13,4 25,3 4 2 14 8 SW 1024,9 - 0,0
23.08.2019 11:00:00 20,4 12,6 23,0 4 2 16 8 SSW 1025,2 20 0,0
23.08.2019 10:00:00 18,8 11,8 18,3 5 3 16 9 E 1025,3 - 0,0
23.08.2019 09:00:00 16,8 10,9 16,0 8 5 19 10 E 1025,4 - 0,0
23.08.2019 08:00:00 15,5 10,7 14,4 13 7 21 12 E 1025,5 - 0,0
23.08.2019 07:00:00 15,0 10,6 13,8 14 8 19 11 E 1025,4 - 0,0
23.08.2019 06:00:00 14,8 10,6 14,0 13 7 20 11 E 1025,5 - 0,0
23.08.2019 05:00:00 15,3 10,7 14,0 11 6 18 10 E 1025,8 - 0,0
23.08.2019 04:00:00 15,0 11,0 14,1 12 6 18 10 E 1026,0 - 0,0
23.08.2019 03:00:00 16,3 10,2 14,3 10 5 16 9 ENE 1026,1 - 0,0
23.08.2019 02:00:00 15,4 11,2 14,2 9 5 15 8 E 1026,6 - 0,0
23.08.2019 01:00:00 16,0 11,6 15,2 11 6 18 10 ENE 1026,7 - 0,0
23.08.2019 00:00:00 16,0 11,8 15,2 9 5 18 10 ENE 1026,8 - 0,0
22.08.2019 23:00:00 16,2 11,6 15,6 9 5 25 13 NE 1026,5 20 0,0
22.08.2019 22:00:00 16,9 11,0 16,3 17 9 26 14 NNE 1026,4 - 0,0
22.08.2019 21:00:00 17,8 12,0 17,3 14 7 22 12 NNE 1025,9 - 0,0
22.08.2019 20:00:00 19,2 11,0 20,4 11 6 27 15 NNE 1025,6 - 0,0
22.08.2019 19:00:00 19,3 11,6 21,5 16 8 29 16 N 1025,6 - 0,0
22.08.2019 18:00:00 19,9 10,9 23,2 17 9 26 14 N 1025,7 - 0,0
22.08.2019 17:00:00 20,7 12,1 25,1 13 7 22 12 N 1026,0 - 0,0
22.08.2019 16:00:00 20,4 13,4 24,0 11 6 24 13 N 1026,3 - 0,0
22.08.2019 15:00:00 19,4 13,8 24,2 15 8 24 13 N 1026,6 - 0,0
22.08.2019 14:00:00 18,9 12,9 28,1 16 8 23 12 NNW 1026,7 20 0,0
22.08.2019 13:00:00 18,6 12,6 25,6 8 4 12 7 NW 1026,9 - 0,0
22.08.2019 12:00:00 17,7 12,4 22,3 8 5 13 7 NNW 1027,2 - 0,0
22.08.2019 11:00:00 17,8 12,9 21,9 4 2 7 4 WSW 1027,1 30 0,0
22.08.2019 10:00:00 17,6 11,6 18,4 5 3 11 6 SSE 1026,8 - 0,0
22.08.2019 09:00:00 16,3 11,9 15,3 8 4 13 7 ESE 1026,5 - 0,0
22.08.2019 08:00:00 15,1 10,5 12,9 7 4 9 5 ESE 1026,2 12 0,0
22.08.2019 07:00:00 14,3 11,6 12,5 6 4 9 5 SE 1025,9 - 0,0
22.08.2019 06:00:00 14,4 11,9 11,7 6 3 8 4 SE 1025,9 - 0,0
22.08.2019 05:00:00 14,7 8,4 12,6 6 3 7 4 ENE 1025,9 - 0,0
22.08.2019 04:00:00 15,0 10,0 13,4 4 2 11 6 NNE 1025,9 - 0,0
22.08.2019 03:00:00 15,1 10,9 14,0 9 5 12 7 NE 1026,2 - 0,0
22.08.2019 02:00:00 15,0 12,3 14,4 8 5 14 8 NE 1026,5 - 0,0
22.08.2019 01:00:00 15,4 12,9 14,7 10 5 17 9 NE 1026,7 - 0,0
22.08.2019 00:00:00 15,4 12,5 14,8 12 7 23 12 NE 1026,7 - 0,0
21.08.2019 23:00:00 15,4 12,7 15,0 13 7 22 12 NNE 1026,8 - 0,0
21.08.2019 22:00:00 16,1 12,1 15,5 11 6 21 11 NNE 1026,5 - 0,0
21.08.2019 21:00:00 17,2 11,7 16,6 11 6 19 11 NNE 1026,1 - 0,0
21.08.2019 20:00:00 18,1 11,6 19,5 10 5 22 12 N 1026,1 - 0,0
21.08.2019 19:00:00 18,8 10,9 20,8 10 5 23 12 N 1025,9 - 0,0
21.08.2019 18:00:00 18,1 12,1 21,0 14 8 28 15 N 1026,6 - 0,0
21.08.2019 17:00:00 18,7 13,3 22,2 14 7 29 15 N 1026,8 20 0,0
21.08.2019 16:00:00 18,4 13,0 23,5 16 8 26 14 N 1027,0 - 0,0
21.08.2019 15:00:00 18,4 12,8 25,5 11 6 20 11 NNW 1027,3 - 0,0
21.08.2019 14:00:00 18,7 12,9 24,0 8 4 16 9 NW 1027,5 20 0,0
21.08.2019 13:00:00 19,5 10,8 22,7 9 5 16 9 S 1027,9 - 0,0
21.08.2019 12:00:00 18,6 11,9 21,2 9 5 16 9 S 1028,4 - 0,0
21.08.2019 11:00:00 16,8 12,9 19,5 8 4 13 7 S 1028,7 25 0,0
21.08.2019 10:00:00 16,0 11,6 17,9 6 4 11 6 SSE 1028,9 - 0,0
21.08.2019 09:00:00 15,2 12,1 14,5 3 2 11 6 SE 1028,8 - 0,0
21.08.2019 08:00:00 13,6 11,5 11,8 4 2 13 7 SE 1028,5 10 0,0
21.08.2019 07:00:00 12,9 11,6 11,8 6 3 9 5 SE 1028,5 - 0,0
21.08.2019 06:00:00 13,4 12,3 11,8 5 3 9 5 SSE 1028,2 - 0,0
21.08.2019 05:00:00 13,4 10,7 11,7 4 2 9 5 SSE 1028,1 15 0,0
21.08.2019 04:00:00 13,0 10,9 11,5 5 3 8 4 SE 1028,2 - 0,0
21.08.2019 03:00:00 14,3 10,7 12,8 4 2 10 5 NNE 1028,1 - 0,0
21.08.2019 02:00:00 15,1 10,9 13,3 5 3 11 6 N 1028,3 15 0,0
21.08.2019 01:00:00 15,3 10,5 13,5 5 3 13 7 N 1028,3 - 0,0
21.08.2019 00:00:00 15,6 9,9 12,9 5 3 13 7 NNW 1028,3 - 0,0
20.08.2019 23:00:00 15,7 10,2 13,8 7 4 15 8 NNW 1028,2 15 0,0
20.08.2019 22:00:00 15,9 10,6 14,2 9 5 16 9 NNW 1028,0 - 0,0
20.08.2019 21:00:00 16,1 10,8 14,7 7 4 15 8 NW 1027,5 - 0,0
20.08.2019 20:00:00 17,3 10,7 19,4 9 5 17 9 NNW 1027,0 15 0,0
20.08.2019 19:00:00 17,8 10,7 22,7 11 6 21 11 NNW 1026,7 - 0,0
20.08.2019 18:00:00 18,0 10,4 25,0 10 5 22 12 NNW 1026,6 - 0,0
20.08.2019 17:00:00 18,2 11,3 25,6 11 6 25 13 NNW 1026,3 20 0,0
20.08.2019 16:00:00 19,1 11,9 25,9 13 7 24 13 WNW 1025,9 - 0,0
20.08.2019 15:00:00 19,0 12,0 25,4 15 8 26 14 WNW 1025,7 - 0,0
20.08.2019 14:00:00 18,7 12,2 23,0 14 7 31 17 W 1025,5 30 0,0
20.08.2019 13:00:00 18,5 12,0 21,1 15 8 30 16 W 1025,3 - 0,0
20.08.2019 12:00:00 18,0 12,2 19,5 14 7 35 19 W 1024,8 - 0,0
20.08.2019 11:00:00 17,2 12,5 16,6 22 12 32 18 W 1024,6 30 0,0
20.08.2019 10:00:00 16,0 12,2 16,0 14 7 34 18 WSW 1024,2 - 0,0
20.08.2019 09:00:00 15,6 12,9 15,6 15 8 30 16 SW 1023,6 - 0,0
20.08.2019 08:00:00 15,6 13,1 14,8 13 7 32 17 WSW 1023,0 - 0,0
20.08.2019 07:00:00 15,3 11,3 14,6 12 6 28 15 W 1022,6 - 0,0
20.08.2019 06:00:00 15,3 11,5 14,6 11 6 29 15 W 1022,0 - 0,0
20.08.2019 05:00:00 15,5 12,8 14,8 19 10 31 17 W 1021,7 20 0,0
20.08.2019 04:00:00 15,6 12,3 15,2 20 11 34 18 W 1021,6 - 0,0
20.08.2019 03:00:00 15,8 12,2 15,1 18 10 35 19 W 1021,9 - 0,0
20.08.2019 02:00:00 15,9 12,1 15,3 19 10 35 19 W 1021,9 - 0,0

tt = Température de l'air
td = dewpoint
tt 5cm = Température de l'air 5cm
ff = Vitesse du vent
fx = gusts
dd = Direction du vent
ppp = reduced air pressure
vv = visibility
rr = Quantités de précipitations

stations d'obs. à proximité